Вернуться в каталог

STARLINK-34669

АктивенСвязьVLEO
NORAD 64811·PAYLOAD·🇺🇸 United States

Запущен Jul 16, 2025 с Vandenberg Space Force Base

Loading…

Ближайшие Пролёты (ближайшие 24 часа)

TLE

СвежийSource: CelesTrak SupGP

Эпоха: Sep 15, 2026, 03:22 UTC

1 64811C 25150X   26258.14076389  .00050014  00000+0  41920-2 0  2589
2 64811  70.0030  16.6366 0003129 267.8263 257.4631 14.98299730    10

Отслеживайте STARLINK-34669 в реальном времени с AllMySat

Download on the App Store